RH
32 38 40 38 39 48 46 47 56 64 100 82 68 60 76 79 71 77 69 76 64 67 97 100 100 86 41 22 12 9 12 15 16 14 22 32 41 37 31 29 26 24 22
36 45 49 54 61 59 58 56 65 72 93 68 60 73 74 72 72 77 71 92 100 100 100 100 96 59 23 13 11 14 17 19 18 15 36 46 34 32 29 27 25 23 23
65 56 54 54 52 56 55 53 60 72 62 78 72 69 79 78 90 100 98 92 100 100 100 96 66 24 16 11 13 15 23 23 28 36 36 33 30 30 30 28 24 26 32
81 78 60 50 51 52 53 65 69 63 78 85 80 78 70 87 100 100 97 100 99 98 97 88 38 18 12 14 18 19 33 38 42 34 33 32 29 29 28 26 27 41 55
91 89 64 46 59 59 59 62 66 78 70 70 82 76 75 74 99 100 99 99 100 98 91 53 28 12 14 18 21 30 42 44 39 35 35 30 26 26 26 28 39 51 79
79 77 73 65 61 59 70 80 84 85 93 100 100 100 100 100 100 100 100 100 99 71 35 20 12 14 21 24 27 32 45 40 39 36 30 23 25 26 27 39 56 71 69
98 84 56 68 76 78 81 87 74 76 93 96 100 100 100 100 100 100 100 97 78 38 22 12 14 20 29 30 33 42 50 40 38 33 26 22 24 26 33 65 71 68 52
78 54 74 84 86 90 94 86 91 96 100 100 100 100 100 100 100 100 98 71 34 17 13 14 21 29 35 36 51 67 56 50 44 33 26 22 24 28 36 70 75 66 58
58 88 87 88 87 86 86 81 100 100 100 100 100 100 100 100 100 84 44 21 16 14 17 23 30 37 38 51 71 67 66 58 48 36 27 22 25 30 41 79 83 61 62
80 82 82 82 86 99 100 100 100 100 100 99 100 100 100 97 56 28 14 13 14 20 27 30 40 44 49 75 71 72 73 63 50 37 26 23 28 33 45 84 84 62 64
73 84 87 86 88 89 100 100 100 100 100 100 100 100 86 37 15 12 16 23 25 29 34 44 46 55 81 78 80 82 77 69 56 41 28 23 30 37 48 90 89 67 72
83 82 81 77 68 74 93 100 100 100 100 100 90 49 16 13 14 18 29 33 31 35 40 52 53 76 86 84 90 91 86 78 66 49 33 24 24 37 42 90 94 81 67
75 67 44 29 19 28 73 100 100 100 96 66 28 18 15 14 18 24 36 34 37 43 52 60 76 93 98 100 97 98 99 92 80 61 40 27 22 28 39 73 100 96 68
21 5 4 6 10 26 93 99 72 36 23 23 23 20 17 18 24 30 40 35 37 46 61 65 75 89 97 99 100 100 100 99 93 77 57 40 25 22 30 40 97 100 87
4 4 5 6 12 30 44 33 33 34 34 31 26 24 19 24 30 34 41 38 42 48 72 75 80 90 95 100 100 100 100 100 98 90 78 61 39 22 22 31 57 100 100
5 5 6 9 20 31 38 45 43 38 35 31 30 23 24 33 39 48 48 44 46 51 72 79 89 92 93 96 99 100 100 99 100 98 90 76 57 33 21 21 29 91 100
6 7 9 15 29 43 53 52 41 38 38 36 27 24 30 37 46 54 54 50 49 50 77 85 89 94 94 94 96 99 100 100 100 100 97 88 76 44 29 20 24 36 100
8 10 17 38 51 58 52 43 41 40 36 28 25 30 34 39 48 55 57 54 54 60 91 96 95 96 93 94 97 100 97 98 100 100 97 94 88 60 38 23 20 25 74
10 12 32 55 54 43 36 37 39 36 23 19 23 33 38 40 44 54 54 56 55 71 100 100 100 100 99 99 100 99 97 98 95 95 98 95 85 79 56 35 22 21 28
17 45 66 56 44 46 49 44 33 21 19 20 23 28 35 38 46 50 55 58 56 67 100 100 100 100 98 97 100 98 99 100 97 95 97 97 90 83 67 42 32 22 23
46 67 62 54 56 50 41 28 19 19 20 21 22 24 26 29 39 48 56 61 57 67 100 100 100 100 98 93 95 95 89 99 100 99 90 91 92 84 76 48 41 31 22
86 84 68 55 44 36 23 17 18 20 19 17 16 20 22 23 30 43 56 64 59 66 100 100 100 100 100 100 90 96 94 92 98 100 96 87 90 91 85 61 53 41 32
73 55 49 43 28 17 18 19 16 13 14 17 14 20 24 26 32 42 59 69 63 63 97 100 100 100 100 100 100 99 99 98 92 100 100 90 89 92 89 76 61 51 44
52 48 38 20 16 19 16 11 10 12 16 16 19 21 25 28 32 43 64 75 71 71 96 100 100 100 100 100 100 100 100 100 98 99 98 98 92 93 91 88 75 63 52
46 27 18 16 20 15 12 10 10 11 15 18 18 21 28 31 32 39 60 80 78 78 94 100 100 100 100 100 100 99 98 100 100 100 100 98 100 97 94 93 82 73 61
22 17 16 21 17 14 13 10 10 11 12 16 21 23 26 31 34 37 52 75 87 90 100 100 100 100 100 100 100 100 99 97 100 100 100 96 100 100 94 91 94 92 81
Wind_Speed
45 46 48 53 53 53 54 55 55 55 50 59 58 59 60 62 64 67 69 72 73 76 79 75 78 78 77 78 76 69 61 55 48 42 40 40 40 42 42 43 44 44 42
46 46 48 52 53 53 54 55 55 51 54 58 58 60 60 65 69 74 73 77 81 82 79 73 73 75 73 69 66 59 51 48 45 40 39 41 42 42 42 42 42 40 39
49 49 51 54 54 54 55 54 54 57 57 58 60 61 65 71 77 80 79 82 87 78 69 75 74 67 66 63 59 52 44 43 41 41 40 41 41 43 42 41 39 36 35
49 49 53 54 53 54 55 55 57 58 55 58 62 65 70 74 78 82 85 85 77 70 74 75 68 66 61 56 49 44 39 39 40 41 40 41 42 42 40 37 33 33 33
49 52 56 52 53 56 56 57 57 58 61 61 66 69 71 76 82 89 77 65 69 77 75 67 67 61 54 50 44 38 38 38 39 39 40 41 39 37 36 32 31 31 36
49 52 52 54 56 57 56 58 61 66 67 75 81 82 83 85 87 69 65 74 79 80 66 63 60 55 49 43 39 37 36 36 35 36 36 37 35 35 32 29 31 34 36
48 52 56 56 57 56 57 60 64 69 72 75 84 88 81 85 71 66 72 78 79 67 61 59 56 49 44 39 37 35 35 36 37 37 35 35 31 32 28 28 31 34 38
52 55 55 56 57 59 62 66 66 71 73 86 87 81 75 68 65 74 79 71 64 59 57 55 50 42 39 35 34 32 34 35 36 36 35 34 32 32 28 28 32 35 35
54 54 56 58 61 63 66 66 71 79 82 80 82 75 68 70 74 77 67 60 55 55 54 50 42 37 35 31 30 31 33 34 35 35 34 32 30 29 27 27 31 34 30
53 56 59 61 65 64 71 69 71 79 83 80 79 75 74 78 74 67 62 57 55 52 50 43 36 33 30 28 28 30 31 32 32 32 32 31 29 28 26 27 29 31 27
59 61 63 65 67 69 72 73 75 80 80 77 72 73 68 64 61 58 55 53 51 48 42 37 32 29 26 26 28 30 30 30 31 30 28 27 26 26 25 26 27 29 26
61 65 69 71 71 71 69 69 74 76 72 69 64 61 62 59 57 54 52 50 47 44 37 33 30 25 24 25 28 29 30 30 31 31 30 27 25 25 24 24 26 27 25
66 68 68 68 68 68 67 69 71 72 68 62 61 62 63 61 56 51 49 46 44 40 34 29 27 25 25 27 28 28 30 30 30 30 30 28 25 23 23 22 23 25 25
64 63 65 67 67 68 68 71 67 61 58 60 63 66 65 57 52 48 46 45 41 35 31 28 26 25 26 28 28 29 29 28 28 28 27 28 26 23 21 20 20 21 23
64 65 66 69 71 70 66 61 60 60 63 64 66 69 64 55 51 48 45 42 39 33 27 28 27 27 27 29 29 29 27 27 26 27 27 27 26 24 21 19 18 19 20
65 68 69 69 66 64 61 61 62 63 64 67 70 68 59 53 49 47 42 39 37 31 26 26 25 25 25 26 27 27 26 25 25 25 25 26 26 25 22 19 17 16 17
68 68 69 67 64 62 63 61 60 62 67 70 71 64 56 51 47 44 40 38 36 31 26 25 23 24 25 27 27 25 25 24 24 24 24 24 25 25 24 20 16 14 14
68 68 68 63 63 62 62 64 65 67 69 70 64 57 52 48 44 41 38 36 34 31 26 24 24 25 27 27 26 24 24 23 22 22 22 22 22 23 25 23 17 14 11
70 68 65 63 63 64 64 67 69 71 74 70 59 52 49 46 42 39 38 35 33 29 27 25 26 26 26 26 26 25 24 23 22 21 21 21 20 21 23 24 20 14 11
69 66 66 66 67 68 71 73 76 78 73 65 58 52 48 45 41 38 37 35 33 30 28 26 27 27 25 25 26 26 24 23 22 22 21 20 19 19 20 21 22 17 12
67 66 67 68 69 72 76 79 79 73 67 61 56 52 47 44 40 37 35 34 32 31 29 28 29 27 25 24 24 24 24 23 22 21 20 19 18 18 17 18 20 20 15
67 68 69 71 74 76 80 77 69 63 60 57 55 43 45 42 39 38 35 32 32 30 29 29 28 27 27 27 25 24 23 22 22 21 21 19 17 17 16 16 18 19 18
66 69 73 74 78 77 70 64 59 55 53 54 51 45 43 39 38 37 34 32 32 31 31 29 28 27 27 28 27 25 24 24 22 22 23 20 18 17 16 16 16 17 17
73 74 75 78 72 66 61 55 51 50 50 50 48 45 43 39 37 35 34 32 32 32 33 32 30 28 28 28 27 26 25 24 24 23 23 22 19 17 16 16 16 16 16
73 76 76 69 64 59 54 52 51 50 50 49 46 42 40 39 37 35 33 33 33 32 33 34 32 29 30 29 27 25 26 25 24 24 24 24 23 20 19 17 16 16 16
76 72 67 62 59 56 54 53 53 52 49 48 43 41 40 38 36 34 34 34 33 33 34 35 34 34 31 31 31 31 30 27 25 25 25 25 25 24 22 19 17 17 17
Wind_Direction
305 304 302 300 301 303 304 304 305 306 298 304 306 304 302 304 304 304 305 307 309 310 308 307 305 315 323 324 321 313 308 305 305 303 302 299 297 295 293 292 291 288 284
307 304 302 299 302 303 303 304 304 302 295 300 305 304 304 304 304 303 305 306 306 304 304 304 316 324 324 319 313 307 305 304 302 302 302 302 301 298 294 294 292 288 284
308 306 302 302 305 304 303 304 302 302 301 306 307 305 303 303 303 304 306 307 306 305 303 309 325 324 320 316 309 304 305 302 303 304 304 303 301 299 296 296 292 287 283
305 303 302 303 304 303 304 305 303 304 303 301 304 304 306 308 305 305 305 306 305 303 308 321 323 322 316 309 304 305 304 302 303 304 306 308 306 303 301 296 290 287 288
304 300 300 306 305 306 306 305 303 303 302 304 305 307 311 314 310 308 308 305 307 313 322 322 319 316 311 305 305 305 304 303 304 307 309 307 306 303 301 298 294 295 299
295 295 299 306 305 307 308 306 305 302 304 303 301 299 296 298 307 306 303 310 314 325 324 319 312 310 307 305 307 304 304 303 305 306 308 310 310 307 305 301 303 306 303
293 297 308 307 307 306 306 308 309 307 302 302 299 296 297 304 306 302 306 314 323 322 317 310 308 307 303 307 306 307 309 310 312 314 314 314 314 310 305 303 307 312 310
299 304 306 306 306 307 307 304 305 308 304 299 295 296 304 304 299 308 317 324 321 314 310 308 305 306 303 308 307 311 314 314 313 317 317 318 316 313 308 310 315 318 314
304 305 305 305 304 304 304 305 299 299 298 297 301 303 300 297 303 321 322 317 313 310 307 306 306 305 306 308 309 315 316 316 318 318 318 318 315 313 308 314 320 323 319
302 303 304 306 306 306 303 300 299 297 297 300 300 298 298 310 323 320 317 312 310 309 307 306 307 307 308 308 313 316 316 316 321 323 320 319 317 315 310 316 322 325 322
308 308 306 305 302 301 301 304 304 304 304 303 298 311 320 321 319 315 312 311 310 309 308 307 307 307 308 311 315 316 317 319 323 326 324 321 317 318 311 315 322 329 328
306 306 305 305 305 303 303 302 304 302 298 309 319 323 322 320 317 314 313 311 311 311 310 306 307 307 305 309 316 316 318 320 325 331 332 327 320 317 313 313 323 330 332
307 306 306 305 305 304 303 302 300 303 312 318 322 324 323 320 316 313 313 312 311 310 308 305 305 305 306 308 311 313 317 319 324 329 334 333 328 317 315 310 321 328 333
308 308 308 308 307 306 304 304 310 313 316 319 322 323 320 315 312 312 312 311 310 307 304 302 302 304 304 305 308 309 312 314 317 322 331 336 334 324 314 313 314 326 331
310 310 310 309 307 307 308 310 313 315 315 316 319 321 317 312 309 309 309 309 309 306 300 298 301 303 304 304 304 305 306 309 313 318 326 333 336 336 324 313 310 320 329
311 312 311 308 306 307 309 311 314 314 315 317 317 317 312 310 308 306 306 306 307 303 297 293 295 300 303 305 305 305 305 307 309 314 319 327 336 341 336 320 311 310 326
312 311 308 307 307 308 309 309 310 309 312 314 314 312 311 308 305 304 304 305 305 300 294 292 295 299 302 303 305 305 305 305 306 311 314 320 331 339 344 335 315 306 316
311 309 307 306 305 307 307 308 308 309 310 310 309 307 306 306 303 302 301 301 301 295 290 289 293 299 301 301 303 304 303 304 305 308 309 315 323 334 346 346 330 310 299
309 306 305 304 304 304 305 306 307 308 309 309 307 303 301 302 302 298 297 298 297 288 282 283 290 298 301 301 302 302 301 303 305 306 308 310 317 327 336 345 345 320 301
307 305 305 305 307 307 308 308 308 308 307 305 304 301 298 296 297 296 293 293 293 284 276 278 286 293 297 299 301 301 298 298 302 304 305 306 312 315 328 339 347 340 315
304 303 305 306 307 308 307 307 306 305 304 302 301 301 297 293 291 292 290 288 288 279 273 273 280 285 290 296 297 297 297 293 293 297 302 300 300 309 319 331 342 349 338
305 306 306 307 307 307 306 305 304 302 301 300 300 298 296 292 288 285 286 284 284 274 265 269 275 279 287 294 296 296 298 297 292 292 295 299 299 302 307 317 331 343 350
307 307 307 307 307 307 306 305 303 301 299 297 302 300 296 291 284 279 279 279 279 274 263 261 265 271 278 286 290 290 295 298 296 289 289 289 295 295 299 305 316 329 340
308 308 308 309 308 308 306 305 303 300 295 296 296 296 295 291 282 275 274 273 273 268 262 261 267 269 271 280 283 285 287 291 294 289 286 285 284 289 291 295 301 314 326
309 310 310 309 309 307 306 304 302 298 295 294 294 293 290 288 281 274 270 270 270 269 264 259 259 262 269 275 279 284 288 287 286 285 284 281 277 280 279 282 293 302 313
312 311 310 309 308 307 306 304 301 297 293 289 289 288 286 284 282 276 269 266 266 264 261 259 259 260 264 268 275 275 288 286 282 281 281 282 275 267 272 270 278 289 298